����������;��������(kWh)
2017-10-30 00:00;74,9
2017-10-30 00:15;74,2
2017-10-30 00:30;73,6
2017-10-30 00:45;75,7
2017-10-30 01:00;75
2017-10-30 01:15;73,8
2017-10-30 01:30;73,3
2017-10-30 01:45;74,3
2017-10-30 02:00;73,35
2017-10-30 02:15;73,45
2017-10-30 02:30;74,45
2017-10-30 02:45;72,6
2017-10-30 03:00;73,5
2017-10-30 03:15;72,9
2017-10-30 03:30;71,3
2017-10-30 03:45;74
2017-10-30 04:00;73,3
2017-10-30 04:15;72,6
2017-10-30 04:30;74,2
2017-10-30 04:45;72,15
2017-10-30 05:00;73,15
2017-10-30 05:15;73,75
2017-10-30 05:30;73,2
2017-10-30 05:45;73,15
2017-10-30 06:00;77,8
2017-10-30 06:15;75,9
2017-10-30 06:30;77,3
2017-10-30 06:45;80,5
2017-10-30 07:00;77,3
2017-10-30 07:15;79,2
2017-10-30 07:30;76,85
2017-10-30 07:45;78,95
2017-10-30 08:00;82,95
2017-10-30 08:15;90,55
2017-10-30 08:30;98,65
2017-10-30 08:45;99,35
2017-10-30 09:00;108,1
2017-10-30 09:15;108,4
2017-10-30 09:30;111,3
2017-10-30 09:45;116,95
2017-10-30 10:00;118,5
2017-10-30 10:15;118,85
2017-10-30 10:30;121,5
2017-10-30 10:45;125,6
2017-10-30 11:00;130,55
2017-10-30 11:15;129,65
2017-10-30 11:30;130,2
2017-10-30 11:45;135,7
2017-10-30 12:00;133,9
2017-10-30 12:15;135,85
2017-10-30 12:30;136,8
2017-10-30 12:45;146
2017-10-30 13:00;148,95
2017-10-30 13:15;151,8
2017-10-30 13:30;156,5
2017-10-30 13:45;156,2
2017-10-30 14:00;154,8
2017-10-30 14:15;154
2017-10-30 14:30;149,9
2017-10-30 14:45;148,6
2017-10-30 15:00;144,55
2017-10-30 15:15;138,9
2017-10-30 15:30;140,1
2017-10-30 15:45;134,55
2017-10-30 16:00;133,85
2017-10-30 16:15;129,55
2017-10-30 16:30;130,25
2017-10-30 16:45;129
2017-10-30 17:00;124,65
2017-10-30 17:15;126,9
2017-10-30 17:30;128,3
2017-10-30 17:45;125,8
2017-10-30 18:00;128,35
2017-10-30 18:15;127,35
2017-10-30 18:30;124,95
2017-10-30 18:45;124,75
2017-10-30 19:00;121,95
2017-10-30 19:15;120,95
2017-10-30 19:30;112,35
2017-10-30 19:45;115,35
2017-10-30 20:00;113,55
2017-10-30 20:15;110,35
2017-10-30 20:30;103,15
2017-10-30 20:45;103,5
2017-10-30 21:00;101,7
2017-10-30 21:15;100,35
2017-10-30 21:30;97,1
2017-10-30 21:45;92
2017-10-30 22:00;87,9
2017-10-30 22:15;91,2
2017-10-30 22:30;91,55
2017-10-30 22:45;89,05
2017-10-30 23:00;90,3
2017-10-30 23:15;87,05
2017-10-30 23:30;84,7
2017-10-30 23:45;85,15
2017-10-31 00:00;82,25
2017-10-31 00:15;84,65
2017-10-31 00:30;82,15
2017-10-31 00:45;83,4
2017-10-31 01:00;83,75
2017-10-31 01:15;82,9
2017-10-31 01:30;85,4
2017-10-31 01:45;81,95
2017-10-31 02:00;82,45
2017-10-31 02:15;83,05
2017-10-31 02:30;82,35
2017-10-31 02:45;83,8
2017-10-31 03:00;81,4
2017-10-31 03:15;83,35
2017-10-31 03:30;81,7
2017-10-31 03:45;81,95
2017-10-31 04:00;83,3
2017-10-31 04:15;77,35
2017-10-31 04:30;79,55
2017-10-31 04:45;78,2
2017-10-31 05:00;78
2017-10-31 05:15;81,3
2017-10-31 05:30;79,5
2017-10-31 05:45;78,3
2017-10-31 06:00;83,8
2017-10-31 06:15;80,5
2017-10-31 06:30;85,3
2017-10-31 06:45;84,05
2017-10-31 07:00;81,85
2017-10-31 07:15;83,6
2017-10-31 07:30;85,35
2017-10-31 07:45;90,95
2017-10-31 08:00;94,85
2017-10-31 08:15;93,75
2017-10-31 08:30;100,7
2017-10-31 08:45;108,75
2017-10-31 09:00;110
2017-10-31 09:15;119,15
2017-10-31 09:30;122,6
2017-10-31 09:45;127,65
2017-10-31 10:00;129,5
2017-10-31 10:15;134,45
2017-10-31 10:30;137,45
2017-10-31 10:45;141,3
2017-10-31 11:00;147,55
2017-10-31 11:15;157,3
2017-10-31 11:30;169,15
2017-10-31 11:45;164,2
2017-10-31 12:00;161,45
2017-10-31 12:15;164,7
2017-10-31 12:30;166,7
2017-10-31 12:45;171,7
2017-10-31 13:00;173,3
2017-10-31 13:15;173,7
2017-10-31 13:30;177,3
2017-10-31 13:45;173,5
2017-10-31 14:00;172
2017-10-31 14:15;175,55
2017-10-31 14:30;166,55
2017-10-31 14:45;166,9
2017-10-31 15:00;162,3
2017-10-31 15:15;157,8
2017-10-31 15:30;154,8
2017-10-31 15:45;147,95
2017-10-31 16:00;145,05
2017-10-31 16:15;138,2
2017-10-31 16:30;134,9
2017-10-31 16:45;136,3
2017-10-31 17:00;129,35
2017-10-31 17:15;133,8
2017-10-31 17:30;133,85
2017-10-31 17:45;130,5
2017-10-31 18:00;134,95
2017-10-31 18:15;134,95
2017-10-31 18:30;136,15
2017-10-31 18:45;134,55
2017-10-31 19:00;133,1
2017-10-31 19:15;129,3
2017-10-31 19:30;123,7
2017-10-31 19:45;123,25
2017-10-31 20:00;117,8
2017-10-31 20:15;112,45
2017-10-31 20:30;111,8
2017-10-31 20:45;109,6
2017-10-31 21:00;110,85
2017-10-31 21:15;101,85
2017-10-31 21:30;96,25
2017-10-31 21:45;93,4
2017-10-31 22:00;88,6
2017-10-31 22:15;89,05
2017-10-31 22:30;86,2
2017-10-31 22:45;85,25
2017-10-31 23:00;86,75
2017-10-31 23:15;81,4
2017-10-31 23:30;80,7
2017-10-31 23:45;82,65
2017-11-01 00:00;79,15
2017-11-01 00:15;80,05
2017-11-01 00:30;77,6
2017-11-01 00:45;78,35
2017-11-01 01:00;80,35
2017-11-01 01:15;76,05
2017-11-01 01:30;76,3
2017-11-01 01:45;76,8
2017-11-01 02:00;76
2017-11-01 02:15;77,1
2017-11-01 02:30;75
2017-11-01 02:45;75,8
2017-11-01 03:00;75,9
2017-11-01 03:15;75,05
2017-11-01 03:30;77,7
2017-11-01 03:45;75,1
2017-11-01 04:00;77,25
2017-11-01 04:15;74,55
2017-11-01 04:30;74,8
2017-11-01 04:45;75,95
2017-11-01 05:00;75,45
2017-11-01 05:15;76,6
2017-11-01 05:30;76,85
2017-11-01 05:45;73,8
2017-11-01 06:00;79,35
2017-11-01 06:15;80,05
2017-11-01 06:30;81,8
2017-11-01 06:45;83,7
2017-11-01 07:00;78,6
2017-11-01 07:15;78,65
2017-11-01 07:30;83,4
2017-11-01 07:45;85,45
2017-11-01 08:00;90,15
2017-11-01 08:15;92,15
2017-11-01 08:30;93,1
2017-11-01 08:45;108,65
2017-11-01 09:00;115,35
2017-11-01 09:15;116,45
2017-11-01 09:30;124,2
2017-11-01 09:45;127,15
2017-11-01 10:00;129
2017-11-01 10:15;132,1
2017-11-01 10:30;135,1
2017-11-01 10:45;141,65
2017-11-01 11:00;145,9
2017-11-01 11:15;152,75
2017-11-01 11:30;158,15
2017-11-01 11:45;153,75
2017-11-01 12:00;148,5
2017-11-01 12:15;154,25
2017-11-01 12:30;154,95
2017-11-01 12:45;154,8
2017-11-01 13:00;150,8
2017-11-01 13:15;150,9
2017-11-01 13:30;154,95
2017-11-01 13:45;150,8
2017-11-01 14:00;153,6
2017-11-01 14:15;155,45
2017-11-01 14:30;153,8
2017-11-01 14:45;155,85
2017-11-01 15:00;150,95
2017-11-01 15:15;147,75
2017-11-01 15:30;144,35
2017-11-01 15:45;138,2
2017-11-01 16:00;133,75
2017-11-01 16:15;129,75
2017-11-01 16:30;128,45
2017-11-01 16:45;128,55
2017-11-01 17:00;130,05
2017-11-01 17:15;125,7
2017-11-01 17:30;124,05
2017-11-01 17:45;128,3
2017-11-01 18:00;128,9
2017-11-01 18:15;131,45
2017-11-01 18:30;121,25
2017-11-01 18:45;119,85
2017-11-01 19:00;125,15
2017-11-01 19:15;122,75
2017-11-01 19:30;116
2017-11-01 19:45;117,3
2017-11-01 20:00;116,15
2017-11-01 20:15;111,8
2017-11-01 20:30;110,5
2017-11-01 20:45;108,85
2017-11-01 21:00;102,9
2017-11-01 21:15;99,4
2017-11-01 21:30;98,95
2017-11-01 21:45;94,3
2017-11-01 22:00;92,55
2017-11-01 22:15;87,35
2017-11-01 22:30;89,45
2017-11-01 22:45;91
2017-11-01 23:00;88,65
2017-11-01 23:15;87,9
2017-11-01 23:30;84,85
2017-11-01 23:45;83,75
2017-11-02 00:00;84,6
2017-11-02 00:15;82,25
2017-11-02 00:30;83,85
2017-11-02 00:45;83,5
2017-11-02 01:00;82,9
2017-11-02 01:15;83,9
2017-11-02 01:30;82,95
2017-11-02 01:45;82,55
2017-11-02 02:00;83,75
2017-11-02 02:15;81,8
2017-11-02 02:30;83,15
2017-11-02 02:45;80,5
2017-11-02 03:00;81
2017-11-02 03:15;82,9
2017-11-02 03:30;81,65
2017-11-02 03:45;79,95
2017-11-02 04:00;82,75
2017-11-02 04:15;80,25
2017-11-02 04:30;81,7
2017-11-02 04:45;80,75
2017-11-02 05:00;80,55
2017-11-02 05:15;83,35
2017-11-02 05:30;79,85
2017-11-02 05:45;78,05
2017-11-02 06:00;83,5
2017-11-02 06:15;80,6
2017-11-02 06:30;82,6
2017-11-02 06:45;84,55
2017-11-02 07:00;80
2017-11-02 07:15;83,1
2017-11-02 07:30;83,3
2017-11-02 07:45;87,6
2017-11-02 08:00;91,3
2017-11-02 08:15;95,75
2017-11-02 08:30;103,15
2017-11-02 08:45;114,5
2017-11-02 09:00;114,5
2017-11-02 09:15;119,5
2017-11-02 09:30;119,75
2017-11-02 09:45;124,05
2017-11-02 10:00;127,6
2017-11-02 10:15;129,25
2017-11-02 10:30;131,7
2017-11-02 10:45;133
2017-11-02 11:00;134,5
2017-11-02 11:15;136,95
2017-11-02 11:30;143
2017-11-02 11:45;140,6
2017-11-02 12:00;136,6
2017-11-02 12:15;139,55
2017-11-02 12:30;143
2017-11-02 12:45;152,35
2017-11-02 13:00;152,5
2017-11-02 13:15;146,7
2017-11-02 13:30;149,45
2017-11-02 13:45;151,95
2017-11-02 14:00;146,05
2017-11-02 14:15;150,75
2017-11-02 14:30;148,25
2017-11-02 14:45;150,75
2017-11-02 15:00;143,65
2017-11-02 15:15;139,8
2017-11-02 15:30;137,45
2017-11-02 15:45;132,4
2017-11-02 16:00;134,7
2017-11-02 16:15;129,15
2017-11-02 16:30;126,75
2017-11-02 16:45;123,2
2017-11-02 17:00;122,1
2017-11-02 17:15;133,1
2017-11-02 17:30;133,8
2017-11-02 17:45;138
2017-11-02 18:00;137,65
2017-11-02 18:15;137,95
2017-11-02 18:30;133,6
2017-11-02 18:45;130,6
2017-11-02 19:00;134,75
2017-11-02 19:15;127,1
2017-11-02 19:30;121,75
2017-11-02 19:45;122,5
2017-11-02 20:00;114,15
2017-11-02 20:15;116,6
2017-11-02 20:30;114,25
2017-11-02 20:45;111,35
2017-11-02 21:00;113,15
2017-11-02 21:15;101,35
2017-11-02 21:30;97,45
2017-11-02 21:45;98,45
2017-11-02 22:00;91,65
2017-11-02 22:15;92,45
2017-11-02 22:30;91,1
2017-11-02 22:45;88,6
2017-11-02 23:00;90,25
2017-11-02 23:15;85,95
2017-11-02 23:30;85,65
2017-11-02 23:45;84,3
2017-11-03 00:00;83,4
2017-11-03 00:15;86,6
2017-11-03 00:30;82,4
2017-11-03 00:45;82,2
2017-11-03 01:00;84,1
2017-11-03 01:15;81,25
2017-11-03 01:30;81,85
2017-11-03 01:45;76,95
2017-11-03 02:00;76,8
2017-11-03 02:15;79,25
2017-11-03 02:30;76,25
2017-11-03 02:45;75,4
2017-11-03 03:00;76,05
2017-11-03 03:15;75,9
2017-11-03 03:30;75,9
2017-11-03 03:45;76,4
2017-11-03 04:00;74,2
2017-11-03 04:15;77
2017-11-03 04:30;74,3
2017-11-03 04:45;75,1
2017-11-03 05:00;76,6
2017-11-03 05:15;76,4
2017-11-03 05:30;77,3
2017-11-03 05:45;75,8
2017-11-03 06:00;79,95
2017-11-03 06:15;81,35
2017-11-03 06:30;83,65
2017-11-03 06:45;82,05
2017-11-03 07:00;76,95
2017-11-03 07:15;77,45
2017-11-03 07:30;82
2017-11-03 07:45;83,95
2017-11-03 08:00;88,65
2017-11-03 08:15;89,85
2017-11-03 08:30;92,65
2017-11-03 08:45;103,55
2017-11-03 09:00;103,65
2017-11-03 09:15;109,25
2017-11-03 09:30;110,85
2017-11-03 09:45;114,7
2017-11-03 10:00;119,6
2017-11-03 10:15;121,3
2017-11-03 10:30;121,7
2017-11-03 10:45;128,3
2017-11-03 11:00;131,3
2017-11-03 11:15;135,7
2017-11-03 11:30;141,1
2017-11-03 11:45;134,2
2017-11-03 12:00;134,55
2017-11-03 12:15;133,75
2017-11-03 12:30;136,4
2017-11-03 12:45;135,7
2017-11-03 13:00;139,85
2017-11-03 13:15;137,05
2017-11-03 13:30;138,7
2017-11-03 13:45;144,85
2017-11-03 14:00;142,25
2017-11-03 14:15;143,1
2017-11-03 14:30;141,15
2017-11-03 14:45;138,1
2017-11-03 15:00;137,05
2017-11-03 15:15;134,2
2017-11-03 15:30;132,85
2017-11-03 15:45;132,35
2017-11-03 16:00;127,15
2017-11-03 16:15;119,85
2017-11-03 16:30;116,65
2017-11-03 16:45;114,1
2017-11-03 17:00;111,65
2017-11-03 17:15;110,25
2017-11-03 17:30;111,25
2017-11-03 17:45;116,15
2017-11-03 18:00;118,75
2017-11-03 18:15;117,8
2017-11-03 18:30;117,75
2017-11-03 18:45;117,95
2017-11-03 19:00;117,2
2017-11-03 19:15;117,25
2017-11-03 19:30;110,35
2017-11-03 19:45;111,35
2017-11-03 20:00;105,1
2017-11-03 20:15;106,55
2017-11-03 20:30;105,3
2017-11-03 20:45;100,9
2017-11-03 21:00;97,7
2017-11-03 21:15;97,8
2017-11-03 21:30;97,45
2017-11-03 21:45;92,35
2017-11-03 22:00;91,4
2017-11-03 22:15;85,8
2017-11-03 22:30;85,15
2017-11-03 22:45;83,95
2017-11-03 23:00;81,8
2017-11-03 23:15;79,05
2017-11-03 23:30;80,15
2017-11-03 23:45;76,1
2017-11-04 00:00;77,45
2017-11-04 00:15;74,9
2017-11-04 00:30;75,15
2017-11-04 00:45;75,9
2017-11-04 01:00;74,5
2017-11-04 01:15;76,25
2017-11-04 01:30;76,1
2017-11-04 01:45;75,15
2017-11-04 02:00;79,6
2017-11-04 02:15;78,9
2017-11-04 02:30;79,1
2017-11-04 02:45;77,25
2017-11-04 03:00;77
2017-11-04 03:15;78,4
2017-11-04 03:30;77,15
2017-11-04 03:45;78,55
2017-11-04 04:00;76,25
2017-11-04 04:15;77,3
2017-11-04 04:30;77,85
2017-11-04 04:45;75,65
2017-11-04 05:00;78,35
2017-11-04 05:15;75,15
2017-11-04 05:30;78,6
2017-11-04 05:45;76,7
2017-11-04 06:00;74,95
2017-11-04 06:15;80,95
2017-11-04 06:30;82,4
2017-11-04 06:45;81,5
2017-11-04 07:00;80,75
2017-11-04 07:15;76
2017-11-04 07:30;74,1
2017-11-04 07:45;69,75
2017-11-04 08:00;65,85
2017-11-04 08:15;64,25
2017-11-04 08:30;70,1
2017-11-04 08:45;70,2
2017-11-04 09:00;72
2017-11-04 09:15;72
2017-11-04 09:30;72,4
2017-11-04 09:45;71,95
2017-11-04 10:00;69,9
2017-11-04 10:15;71,9
2017-11-04 10:30;70,85
2017-11-04 10:45;70,7
2017-11-04 11:00;79,7
2017-11-04 11:15;142,6
2017-11-04 11:30;125,35
2017-11-04 11:45;88,3
2017-11-04 12:00;91,55
2017-11-04 12:15;99,65
2017-11-04 12:30;88,2
2017-11-04 12:45;100,7
2017-11-04 13:00;91,15
2017-11-04 13:15;98,2
2017-11-04 13:30;97,85
2017-11-04 13:45;95,65
2017-11-04 14:00;93,5
2017-11-04 14:15;89,75
2017-11-04 14:30;99,6
2017-11-04 14:45;91,9
2017-11-04 15:00;100,85
2017-11-04 15:15;95,05
2017-11-04 15:30;97,6
2017-11-04 15:45;99,25
2017-11-04 16:00;96,3
2017-11-04 16:15;108,9
2017-11-04 16:30;99,55
2017-11-04 16:45;111,65
2017-11-04 17:00;103,95
2017-11-04 17:15;114,65
2017-11-04 17:30;113,5
2017-11-04 17:45;124,25
2017-11-04 18:00;122,95
2017-11-04 18:15;119,4
2017-11-04 18:30;121,5
2017-11-04 18:45;121,9
2017-11-04 19:00;135,25
2017-11-04 19:15;120,2
2017-11-04 19:30;129,65
2017-11-04 19:45;120,4
2017-11-04 20:00;133,85
2017-11-04 20:15;123,5
2017-11-04 20:30;126,7
2017-11-04 20:45;116,4
2017-11-04 21:00;124,15
2017-11-04 21:15;113,75
2017-11-04 21:30;119,95
2017-11-04 21:45;108,6
2017-11-04 22:00;111,1
2017-11-04 22:15;103,85
2017-11-04 22:30;103,35
2017-11-04 22:45;110
2017-11-04 23:00;100,3
2017-11-04 23:15;105,2
2017-11-04 23:30;99,05
2017-11-04 23:45;85,1
2017-11-05 00:00;82
2017-11-05 00:15;82,8
2017-11-05 00:30;81,45
2017-11-05 00:45;80,4
2017-11-05 01:00;79,5
2017-11-05 01:15;80,55
2017-11-05 01:30;77,75
2017-11-05 01:45;78,8
2017-11-05 02:00;77,95
2017-11-05 02:15;78,3
2017-11-05 02:30;78,5
2017-11-05 02:45;77,35
2017-11-05 03:00;79
2017-11-05 03:15;78,2
2017-11-05 03:30;78,5
2017-11-05 03:45;77,85
2017-11-05 04:00;77,75
2017-11-05 04:15;77
2017-11-05 04:30;78,65
2017-11-05 04:45;76,65
2017-11-05 05:00;76,85
2017-11-05 05:15;77
2017-11-05 05:30;76,6
2017-11-05 05:45;77,25
2017-11-05 06:00;79,25
2017-11-05 06:15;80,65
2017-11-05 06:30;83,2
2017-11-05 06:45;80,2
2017-11-05 07:00;76,9
2017-11-05 07:15;75,8
2017-11-05 07:30;75,05
2017-11-05 07:45;72,7
2017-11-05 08:00;72,5
2017-11-05 08:15;73,6
2017-11-05 08:30;74,65
2017-11-05 08:45;71,3
2017-11-05 09:00;69,4
2017-11-05 09:15;69,25
2017-11-05 09:30;70,3
2017-11-05 09:45;69,4
2017-11-05 10:00;69,7
2017-11-05 10:15;71
2017-11-05 10:30;71,75
2017-11-05 10:45;70,8
2017-11-05 11:00;70,3
2017-11-05 11:15;73,55
2017-11-05 11:30;73,3
2017-11-05 11:45;73,15
2017-11-05 12:00;71,9
2017-11-05 12:15;68,75
2017-11-05 12:30;72,85
2017-11-05 12:45;76,45
2017-11-05 13:00;77,05
2017-11-05 13:15;74,45
2017-11-05 13:30;71,75
2017-11-05 13:45;74,8
2017-11-05 14:00;76,15
2017-11-05 14:15;80,45
2017-11-05 14:30;81,25
2017-11-05 14:45;82,75
2017-11-05 15:00;82,8
2017-11-05 15:15;81,8
2017-11-05 15:30;83
2017-11-05 15:45;83,4
2017-11-05 16:00;80,5
2017-11-05 16:15;78,2
2017-11-05 16:30;78,95
2017-11-05 16:45;82,4
2017-11-05 17:00;80,6
2017-11-05 17:15;82,95
2017-11-05 17:30;86,4
2017-11-05 17:45;91,55
2017-11-05 18:00;93,95
2017-11-05 18:15;92,5
2017-11-05 18:30;90,95
2017-11-05 18:45;93,9
2017-11-05 19:00;95,35
2017-11-05 19:15;97,3
2017-11-05 19:30;94,9
2017-11-05 19:45;95,95
2017-11-05 20:00;95,4
2017-11-05 20:15;91,2
2017-11-05 20:30;92,2
2017-11-05 20:45;91,25
2017-11-05 21:00;91,15
2017-11-05 21:15;90,55
2017-11-05 21:30;88,45
2017-11-05 21:45;90,1
2017-11-05 22:00;83,25
2017-11-05 22:15;82,8
2017-11-05 22:30;82,3
2017-11-05 22:45;81,9
2017-11-05 23:00;81,7
2017-11-05 23:15;79,3
2017-11-05 23:30;78,65
2017-11-05 23:45;78,85

